EW2827 Weather Reports


time (UTC)temp
F
wind
direction
speed
knots
gust
knots
rain 1hr
in
rain 24hr
in
rain mn
in
humidity
%
barometer
mb
20260510022513 69 212 2.6 5.2 0.00 0.00 0.00 65 1011.5
20260510022013 68 219 1.7 5.2 0.00 0.00 0.00 66 1011.7
20260510021008 68 262 2.6 7.0 0.00 0.00 0.00 67 1011.8
20260510015507 68 240 0.9 4.3 0.00 0.00 0.00 67 1011.9
20260510014506 68 260 2.6 7.0 0.00 0.00 0.00 67 1012.1
20260510013505 67 269 1.7 7.0 0.00 0.00 0.00 67 1012.2
20260510012506 67 177 2.6 7.0 0.00 0.00 0.00 67 1012.3
20260510012017 66 194 0.9 3.5 0.00 0.00 0.00 70 1012.5
20260510011505 67 178 1.7 6.1 0.00 0.00 0.00 68 1012.4
20260510005542 64 288 0.9 3.5 0.00 0.00 0.00 74 1012.6
20260510005506 65 194 0.9 2.6 0.00 0.00 0.00 72 1012.6
20260510003501 62 288 0.9 3.5 0.00 0.00 0.00 75 1012.6
20260510003001 61 276 0.9 3.5 0.00 0.00 0.00 78 1012.6
20260510001459 60 276 0.9 5.2 0.00 0.00 0.00 80 1012.5
20260510000511 58 273 0.9 3.5 0.00 0.00 0.00 83 1012.5
20260509235510 57 263 0.9 2.6 0.00 0.00 0.00 85 1012.4
20260509235459 57 223 0.9 2.6 0.00 0.00 0.00 84 1012.4
20260509234000 56 272 0.9 3.5 0.00 0.00 0.00 87 1012.3
20260509232459 55 275 0.0 2.6 0.00 0.00 0.00 88 1012.4
20260509231501 54 206 0.9 2.6 0.00 0.00 0.00 89 1012.4
20260509230507 54 211 0.0 1.7 0.00 0.00 0.00 90 1012.3
20260509225955 53 211 0.0 2.6 0.00 0.00 0.00 91 1012.3
20260509224454 52 211 0.9 3.5 0.00 0.00 0.00 92 1012.3
20260509223453 52 192 0.9 3.5 0.00 0.00 0.00 92 1012.4
20260509222454 51 173 0.0 3.5 0.00 0.00 0.00 92 1012.3
20260509221452 51 311 0.0 1.7 0.00 0.00 0.00 92 1012.2
20260509220506 50 311 0.0 1.7 0.00 0.00 0.00 92 1012.2
20260509215452 50 311 0.0 1.7 0.00 0.00 0.00 92 1012.2
20260509214452 50 311 0.0 1.7 0.00 0.00 0.00 92 1012.0
20260509213446 50 311 0.0 0.9 0.00 0.00 0.00 91 1011.9
20260509212445 50 311 0.0 0.9 0.00 0.00 0.00 91 1011.7
20260509211446 50 311 0.0 0.0 0.00 0.00 0.00 90 1011.6
20260509210444 50 311 0.0 0.9 0.00 0.00 0.00 90 1011.4
20260509205446 50 311 0.0 1.7 0.00 0.00 0.00 90 1011.3
20260509204447 51 311 0.0 1.7 0.00 0.00 0.00 90 1011.2
20260509203447 51 311 0.0 0.9 0.00 0.00 0.00 90 1011.1
20260509202947 51 311 0.0 1.7 0.00 0.00 0.00 89 1011.0
20260509201446 51 311 0.0 1.7 0.00 0.00 0.00 89 1010.8
20260509200451 51 311 0.0 0.9 0.00 0.00 0.00 89 1010.8
20260509195505 52 311 0.0 0.0 0.00 0.00 0.00 89 1010.4
20260509195446 52 311 0.0 0.9 0.00 0.00 0.00 89 1010.6
20260509193445 52 311 0.0 2.6 0.00 0.00 0.00 90 1010.2
20260509192946 52 311 0.0 1.7 0.00 0.00 0.00 90 1010.1
20260509191445 52 311 0.9 2.6 0.00 0.00 0.00 90 1010.1
20260509190445 52 311 0.0 1.7 0.00 0.00 0.00 90 1010.1
20260509185941 52 311 0.9 2.6 0.00 0.00 0.00 90 1009.9
20260509184438 52 311 0.9 2.6 0.00 0.00 0.00 90 1009.8
20260509183438 52 311 0.0 1.7 0.00 0.00 0.00 89 1009.8
20260509182436 52 311 0.9 3.5 0.00 0.00 0.00 89 1009.7
20260509181437 52 311 0.0 2.6 0.00 0.00 0.00 89 1009.7
20260509180944 52 311 0.0 2.6 0.00 0.00 0.00 89 1009.6
20260509175440 52 311 0.0 1.7 0.00 0.00 0.00 89 1009.6
20260509174437 52 311 0.9 1.7 0.00 0.00 0.00 89 1009.6
20260509173437 52 311 0.0 2.6 0.00 0.00 0.00 89 1009.5
20260509172936 52 311 0.0 1.7 0.00 0.00 0.00 88 1009.5
20260509171432 52 311 0.0 1.7 0.00 0.00 0.00 88 1009.5
20260509170433 52 311 0.9 2.6 0.00 0.00 0.00 89 1009.5
20260509165433 52 311 0.9 2.6 0.00 0.00 0.00 89 1009.5
20260509164429 52 311 0.0 1.7 0.00 0.00 0.00 88 1009.5
20260509163430 53 311 0.9 2.6 0.00 0.00 0.00 89 1009.4
20260509162428 53 311 0.9 2.6 0.00 0.00 0.00 89 1009.4
20260509161429 52 311 0.0 2.6 0.00 0.00 0.00 89 1009.5
20260509160424 53 311 0.9 2.6 0.00 0.00 0.00 89 1009.5
20260509155427 53 311 0.9 2.6 0.00 0.00 0.00 89 1009.6
20260509154428 52 308 0.0 1.7 0.00 0.00 0.00 89 1009.5
20260509153926 53 293 0.9 2.6 0.00 0.00 0.00 89 1009.6
20260509152428 53 282 0.9 2.6 0.00 0.00 0.00 89 1009.7
20260509151430 53 282 0.9 1.7 0.00 0.00 0.00 89 1009.7
20260509150427 53 259 0.0 1.7 0.00 0.00 0.00 88 1009.6
20260509145427 53 259 0.0 1.7 0.00 0.00 0.00 88 1009.6
20260509144427 53 258 0.0 1.7 0.00 0.00 0.00 88 1009.6
20260509143424 53 258 0.0 1.7 0.00 0.00 0.00 88 1009.5
20260509142426 53 259 0.0 1.7 0.00 0.00 0.00 88 1009.6
20260509141426 53 259 0.0 0.9 0.00 0.00 0.00 88 1009.5
20260509140424 53 329 0.0 0.9 0.00 0.00 0.00 87 1009.5
20260509135424 53 329 0.0 1.7 0.00 0.00 0.00 88 1009.5
20260509134423 53 329 0.0 1.7 0.00 0.00 0.00 88 1009.5
20260509133423 53 329 0.0 0.9 0.00 0.00 0.00 88 1009.6
20260509132423 54 329 0.0 0.0 0.00 0.00 0.00 88 1009.6
20260509131424 54 329 0.0 0.0 0.00 0.00 0.00 88 1009.6
20260509130420 54 14 0.0 0.0 0.00 0.00 0.00 87 1009.6
20260509125420 54 14 0.0 0.0 0.00 0.00 0.00 87 1009.6
20260509124416 54 14 0.0 0.0 0.00 0.00 0.00 87 1009.6
20260509123414 54 14 0.0 0.0 0.00 0.00 0.00 87 1009.6
20260509122416 54 14 0.0 0.9 0.00 0.00 0.00 87 1009.7
20260509121414 55 14 0.0 1.7 0.00 0.00 0.00 87 1009.7
20260509120415 55 14 0.9 1.7 0.00 0.00 0.00 87 1009.8
20260509115415 55 14 0.9 2.6 0.00 0.00 0.00 87 1009.6
20260509114416 55 14 1.7 2.6 0.00 0.00 0.00 87 1009.6
20260509113418 55 16 1.7 2.6 0.00 0.00 0.00 87 1009.5
20260509112426 54 18 1.7 3.5 0.00 0.00 0.00 87 1009.5
20260509112414 55 18 2.6 2.6 0.00 0.00 0.00 87 1009.5
20260509110416 55 17 2.6 3.5 0.00 0.00 0.00 86 1009.5
20260509105417 55 10 2.6 3.5 0.00 0.00 0.00 85 1009.5
20260509104416 55 26 0.9 3.5 0.00 0.00 0.00 85 1009.4
20260509103912 56 27 0.0 1.7 0.00 0.00 0.00 84 1009.4
20260509102912 56 27 0.0 0.0 0.00 0.00 0.00 84 1009.3
20260509101409 56 27 0.0 1.7 0.00 0.00 0.00 84 1009.2
20260509100410 56 27 1.7 3.5 0.00 0.00 0.00 84 1009.2
20260509095410 56 26 2.6 3.5 0.00 0.00 0.00 83 1009.1
20260509094407 57 76 1.7 2.6 0.00 0.00 0.00 83 1009.0
20260509093409 57 76 1.7 2.6 0.00 0.00 0.00 82 1009.0
20260509092909 57 76 1.7 2.6 0.00 0.00 0.00 81 1008.9
20260509091404 57 76 1.7 2.6 0.00 0.00 0.00 81 1008.8
20260509090405 58 76 1.7 2.6 0.00 0.00 0.00 80 1008.7
20260509085405 58 76 1.7 2.6 0.00 0.00 0.00 79 1008.6
20260509084405 59 76 0.0 0.9 0.00 0.00 0.00 78 1008.4
20260509083405 59 76 0.9 2.6 0.00 0.00 0.00 78 1008.4
20260509082419 59 76 0.0 1.7 0.00 0.00 0.00 77 1008.3
20260509081904 60 76 0.0 1.7 0.00 0.00 0.00 76 1008.1
20260509080404 60 76 0.9 1.7 0.00 0.00 0.00 76 1008.0
20260509075405 60 76 0.0 1.7 0.00 0.00 0.00 75 1007.9
20260509074400 61 76 0.0 1.7 0.00 0.00 0.00 73 1007.8
20260509073359 62 76 0.9 1.7 0.00 0.00 0.00 72 1007.7
20260509072901 62 76 0.0 2.6 0.00 0.00 0.00 71 1007.7
20260509071407 63 140 0.9 2.6 0.00 0.00 0.00 69 1007.6
20260509071400 63 76 0.9 3.5 0.00 0.00 0.00 70 1007.6
20260509065357 63 98 1.7 5.2 0.00 0.00 0.00 69 1007.5
20260509064358 64 145 2.6 6.1 0.00 0.00 0.00 68 1007.3
20260509063358 64 153 2.6 6.1 0.00 0.00 0.00 67 1007.2
20260509062359 65 191 2.6 7.8 0.00 0.00 0.00 66 1007.2
20260509061353 65 109 2.6 7.8 0.00 0.00 0.00 65 1007.0
20260509060854 66 194 3.5 8.7 0.00 0.00 0.00 65 1006.9
20260509055349 66 119 2.6 6.1 0.00 0.00 0.00 64 1006.8
20260509054854 66 144 3.5 6.1 0.00 0.00 0.00 64 1006.8
20260509053350 66 204 2.6 7.0 0.00 0.00 0.00 64 1006.7
20260509052352 66 103 3.5 8.7 0.00 0.00 0.00 63 1006.7
20260509051348 66 163 3.5 8.7 0.00 0.00 0.00 63 1006.6
20260509050349 67 142 4.3 8.7 0.00 0.00 0.00 63 1006.6
20260509045346 67 194 4.3 9.6 0.00 0.00 0.00 62 1006.5
20260509044347 67 136 3.5 7.8 0.00 0.00 0.00 62 1006.5
20260509043346 68 117 3.5 11.3 0.00 0.00 0.00 61 1006.5
20260509042347 68 132 3.5 8.7 0.00 0.00 0.00 61 1006.5
20260509041346 68 114 4.3 9.6 0.00 0.00 0.00 59 1006.4
20260509040848 69 229 3.5 8.7 0.00 0.00 0.00 57 1006.4
20260509035347 70 148 0.9 2.6 0.00 0.00 0.00 51 1006.4
20260509034345 70 155 0.9 3.5 0.00 0.00 0.00 51 1006.4
20260509033345 70 230 1.7 4.3 0.00 0.00 0.00 52 1006.4
20260509032346 70 240 0.9 5.2 0.00 0.00 0.00 52 1006.6
20260509031346 69 277 1.7 6.1 0.00 0.00 0.00 53 1006.7
20260509030346 68 338 1.7 4.3 0.00 0.00 0.00 54 1006.8
20260509025936 67 261 0.9 3.5 0.00 0.00 0.00 56 1006.9
20260509024346 67 144 1.7 5.2 0.00 0.00 0.00 56 1007.0
20260509023347 67 163 1.7 6.1 0.00 0.00 0.00 56 1007.3